Regional Weather Roundup
Issued by NWS Cleveland, OH

Home | Current Version | Previous Version | Text Only | Print | Product List | Glossary Off
Versions: 1 2 3 4 5 6 7 8 9 10 11 12 13 14 15 16 17 18 19 20 21 22 23 24 25 26 27 28 29 30 31 32 33 34 35 36 37 38 39 40 41 42 43 44 45 46 47 48 49 50

000
ASUS41 KCLE 241410
RWRCLE
OHIO REGIONAL WEATHER ROUNDUP
NATIONAL WEATHER SERVICE CLEVELAND, OH
900 AM EST FRI NOV 24 2017

NOTE: "FAIR" INDICATES FEW OR NO CLOUDS BELOW 12,000 FEET WITH NO
SIGNIFICANT WEATHER AND/OR OBSTRUCTIONS TO VISIBILITY.

OHZ001>008-015>018-024>027-034-035-043-044-241500-
   NORTHWEST OHIO

CITY           SKY/WX    TMP DP  RH WIND       PRES   REMARKS
DEFIANCE       SUNNY     35  25  66 S9        29.90R WCI  28
FINDLAY        SUNNY     36  26  67 S14       29.91S
TOLEDO EXPRESS SUNNY     36  27  69 S7        29.89S
TOLEDO EXEC    SUNNY     36  26  67 S10       29.91S
LIMA           SUNNY     36  26  67 S10       29.92F
$$

OHZ009>014-019>023-028>033-038-089-241500-
   NORTHEAST OHIO

CITY           SKY/WX    TMP DP  RH WIND       PRES   REMARKS
CLE-HOPKINS    SUNNY     37  25  61 S13       29.96S
CLE-LAKEFRONT  SUNNY     36  24  62 S12       29.93S
CUY CO. ARPT   SUNNY     37  23  56 S17       29.93S
LORAIN-ELYRIA  SUNNY     34  22  61 S12       29.94S WCI  25
ASHTABULA      SUNNY     36  25  64 S9        29.94S
AKRON-CANTON   SUNNY     34  24  67 S10       29.96S WCI  26
WOOSTER        SUNNY     32  25  75 S6        29.97S WCI  26
MANSFIELD      SUNNY     36  25  64 S12       29.94R
YOUNGSTOWN     SUNNY     34  24  67 S9        29.95F WCI  27
$$

OHZ042-051>053-060>062-070>072-077>081-241500-
  SOUTHWEST OHIO

CITY           SKY/WX    TMP DP  RH WIND       PRES   REMARKS
CINC-COVINGTON SUNNY     36  27  69 S8        29.97S
CINC-LUNKEN    SUNNY     31  29  92 CALM      30.01S
HAMILTON       SUNNY     34  29  82 CALM      29.99R
DAYTON         SUNNY     35  26  69 S7        29.97R WCI  29
WRIGHT-PAT AFB SUNNY     35  27  72 SE6       29.97R WCI  30
DAYTON GENERAL SUNNY     35  26  69 S9        29.96R WCI  28
WILMINGTON     SUNNY     36  28  73 S7        29.97S
$$

OHZ036-037-039>041-045>050-054>059-063>069-073>076-082>088-241500-
  CENTRAL AND SOUTHEAST OHIO

CITY           SKY/WX    TMP DP  RH WIND       PRES   REMARKS
COLUMBUS       SUNNY     34  27  75 S5        29.98S WCI  30
OSU AIRPORT    SUNNY     33  27  78 S7        29.98R WCI  27
BOLTON FIELD   SUNNY     32  27  80 S5        29.99R WCI  27
RICKENBACK AFB SUNNY     32  26  78 S6        29.99R WCI  27
NEWARK         SUNNY     31  27  85 CALM      29.98S
MARION         SUNNY     34  26  72 S10       29.96R WCI  26
LANCASTER      SUNNY     33  27  78 S3        29.99R
ZANESVILLE     SUNNY     32  25  75 SE5       30.00S WCI  27
NEW PHILLY     NOT AVBL
$$




USA.gov is the U.S. government's official web portal to all federal, state and local government web resources and services.